Location: Hamburg
(53.5511°N, 9.9937°E)
Time: 17:00:59
(UTC+02:00)

ISS - Pass Details

Date: 24 March 2026
Orbit: 416 x 425 km, 51.6° (Epoch: 19 April)

Event Time Altitude Azimuth Distance (km) Brightness Sun altitude
Rises 20:45:37 0° 278° (W) 2,388 1.3 -18.4°
Reaches altitude 10° 20:48:09 10° 260° (W) 1,517 -0.2 -18.7°
Maximum altitude 20:50:35 19° 214° (SW) 1,097 -1.6 -19.1°
Enters shadow 20:51:01 18° 203° (SSW) 1,112 -1.7 -19.1°
